Погода в Сазанье

Россия / Пензенская область     52°30′22″N   44°10′06″E
темп.,
°C
ветер,
м/с
пор.,
м/с
влажн.,
%
обл.,
%
осадки,
мм/ч
давл.,
гПа
погр.,
м
13 июня, вс
вс1300:00+15ю3690100 0.0 1010101
03:00+14ю37935 0.0 1010132
06:00+16ю498910 0.0 1010291
09:00+21ююз69715 0.3 10101014
12:00+22ююз796514 1.4 10111615
15:00+23ююз686572 2.6 10111402
18:00+22юз367746 1.3 1011415
21:00+17ю33884 1.4 101226
14 июня, пн
пн1400:00+16ююз22913 0.0 101315
03:00+15ю23930 0.0 101333
06:00+18ю23862 0.0 1014121
09:00+22ююв337285 0.1 1015623
12:00+25ю235595 0.1 10151660
15:00+25ююв2256100 0.1 10151527
18:00+24вюв127099 0.1 101454
21:00+19всв1178100 0.7 101511
15 июня, вт
вт1500:00+17с3388100 0.5 101435
03:00+17св3594100 2.1 1013107
06:00+18св2791100 0.6 1013262
09:00+18всв499474 2.0 1012353
12:00+20вюв368768 0.0 1012277
15:00+24вюв576867 0.6 10111232
18:00+23в377960 2.9 1010281
21:00+19в412905 3.4 1009267
16 июня, ср
ср1600:00+16всв228922 0.0 100929
03:00+16в348384 0.1 100966
06:00+17всв36835 0.0 1008184
09:00+23в366686 0.0 1009704
12:00+25юв4557100 0.0 10081287
15:00+26вюв345671 0.0 10081654
18:00+22юз358198 2.3 1010199
21:00+17ссв3495100 5.5 101297
17 июня, чт
чт1700:00+17в118917 0.0 101211
03:00+15с35945 0.0 101490
06:00+17ссв589325 0.0 1015338
09:00+20св677848 0.0 1016862
12:00+22св676113 0.0 10181221
15:00+22ссв66598 0.0 10181309
18:00+19ссв610680 0.0 1020591
21:00+14св411790 0.0 1021213